TimeEDT,TemperatureF,Dew PointF,Humidity,Sea Level PressureIn,VisibilityMPH,Wind Direction,Wind SpeedMPH,Gust SpeedMPH,PrecipitationIn,Events,Conditions,WindDirDegrees,DateUTC
12:53 AM,73.0,66.0,79,29.76,10.0,WNW,9.2,-,N/A,,Clear,300,2012-10-28 04:53:00
1:53 AM,72.0,66.0,81,29.75,10.0,WNW,8.1,-,N/A,,Clear,300,2012-10-28 05:53:00
2:53 AM,72.0,66.0,81,29.75,10.0,NW,9.2,-,N/A,,Clear,310,2012-10-28 06:53:00
3:53 AM,73.0,66.0,79,29.74,10.0,NW,11.5,-,N/A,,Clear,310,2012-10-28 07:53:00
4:53 AM,73.0,66.0,79,29.74,10.0,NW,10.4,-,N/A,,Clear,310,2012-10-28 08:53:00
5:53 AM,72.0,64.9,78,29.75,10.0,NW,11.5,-,N/A,,Clear,310,2012-10-28 09:53:00
6:53 AM,71.1,64.9,81,29.76,10.0,NW,8.1,-,N/A,,Clear,310,2012-10-28 10:53:00
7:53 AM,71.1,64.9,81,29.78,10.0,NW,8.1,-,N/A,,Partly Cloudy,310,2012-10-28 11:53:00
8:53 AM,73.0,64.9,76,29.80,10.0,NW,8.1,-,N/A,,Clear,320,2012-10-28 12:53:00
9:53 AM,75.9,63.0,64,29.80,10.0,NW,12.7,-,N/A,,Partly Cloudy,320,2012-10-28 13:53:00
11:53 AM,78.1,57.9,50,29.80,10.0,WNW,17.3,27.6,N/A,,Scattered Clouds,300,2012-10-28 15:53:00
12:53 PM,78.1,57.9,50,29.79,10.0,WNW,16.1,24.2,N/A,,Mostly Cloudy,300,2012-10-28 16:53:00
1:53 PM,77.0,59.0,54,29.77,10.0,WNW,21.9,26.5,N/A,,Mostly Cloudy,290,2012-10-28 17:53:00
2:53 PM,75.9,59.0,56,29.75,10.0,NW,17.3,-,N/A,,Mostly Cloudy,310,2012-10-28 18:53:00
3:53 PM,75.0,57.0,53,29.75,10.0,WNW,16.1,24.2,N/A,,Mostly Cloudy,300,2012-10-28 19:53:00
4:53 PM,77.0,55.0,47,29.75,10.0,WNW,16.1,27.6,N/A,,Mostly Cloudy,300,2012-10-28 20:53:00
5:53 PM,73.0,57.0,57,29.76,10.0,NW,16.1,23.0,N/A,,Overcast,310,2012-10-28 21:53:00
6:53 PM,71.1,55.9,59,29.78,10.0,WNW,12.7,-,N/A,,Overcast,300,2012-10-28 22:53:00
7:53 PM,71.1,55.9,59,29.79,10.0,NW,15.0,-,N/A,,Overcast,320,2012-10-28 23:53:00
8:53 PM,68.0,55.0,63,29.80,10.0,NW,9.2,-,N/A,,Overcast,320,2012-10-29 00:53:00
9:53 PM,68.0,55.0,63,29.83,10.0,NW,13.8,19.6,N/A,,Partly Cloudy,310,2012-10-29 01:53:00
10:53 PM,68.0,54.0,61,29.84,10.0,NW,11.5,-,N/A,,Mostly Cloudy,310,2012-10-29 02:53:00
11:53 PM,66.9,54.0,63,29.84,10.0,NNW,12.7,21.9,N/A,,Overcast,330,2012-10-29 03:53:00